User: anonymous   Login
Location: Allen Fire Department Station 4
(33.1073°N, 96.6988°W)
Time: 12:32:55
(UTC+00:00)
Language:

YAOGAN 6 - Orbit

View from above orbital plane
View from above orbital plane
View from above satellite
View from above satellite

Ground track
Ground track

The orbit data is extracted from the following two-line orbital elements,

1 34839U 09021A   22138.04101516  .00007570  00000-0  26613-3 0  9993
2 34839  97.0807 119.6614 0027867  49.4047 310.9612 15.29256551726600
Epoch (UTC): 18 May 2022 00:59:03
Eccentricity: 0.0027867
inclination: 97.0807°
perigee height: 459 km
apogee height: 497 km
right ascension of ascending node: 119.6614°
argument of perigee: 49.4047°
revolutions per day: 15.29256551
mean anomaly at epoch: 310.9612°
orbit number at epoch: 72660

The dashed part of the orbit path shows where the satellite is in the earth's shadow,  

DLR